This is the latest recevied weather packets stored in our database for station/object KJ4RDP-13. If no packets are shown the sender has not sent any weather packets the latest 10 day(s).
| Time | Temp. | Humidity | Pressure | Rain* | Wind** | Luminosity | Snow |
|---|---|---|---|---|---|---|---|
| 1778031615 | 15.56° C | 71% | 1014.2 hPa | 0 mm | - | 0 W/m² | - |
| 1778031313 | 15.56° C | 72% | 1014.2 hPa | 0 mm | - | 0 W/m² | - |
| 1778031010 | 15.56° C | 77% | 1013.8 hPa | 0 mm | - | 0 W/m² | - |
| 1778030706 | 15.56° C | 76% | 1014.2 hPa | 0 mm | - | 0 W/m² | - |
| 1778030403 | 15° C | 75% | 1014.2 hPa | 0 mm | - | 0 W/m² | - |
| 1778030101 | 15° C | 79% | 1014.2 hPa | 0 mm | - | 0 W/m² | - |
| 1778029796 | 15° C | 77% | 1014.6 hPa | 0 mm | - | 0 W/m² | - |
| 1778029496 | 15° C | 78% | 1014.2 hPa | 0 mm | - | 0 W/m² | - |
| 1778029191 | 15° C | 78% | 1013.8 hPa | 0 mm | - | 0 W/m² | - |
| 1778028890 | 15° C | 75% | 1014.2 hPa | 0 mm | - | 0 W/m² | - |
| 1778028584 | 15.56° C | 72% | 1014.2 hPa | 0 mm | - | 0 W/m² | - |
| 1778028283 | 16.11° C | 72% | 1014.2 hPa | 0 mm | - | 0 W/m² | - |
| 1778027979 | 16.67° C | 70% | 1014.2 hPa | 0 mm | - | 0 W/m² | - |
| 1778027675 | 16.67° C | 66% | 1014.2 hPa | 0 mm | - | 0 W/m² | - |
| 1778027372 | 17.78° C | 63% | 1013.8 hPa | 0 mm | - | 0 W/m² | - |
| 1778027068 | 18.33° C | 61% | 1013.8 hPa | 0 mm | - | 0 W/m² | - |
| 1778026763 | 18.33° C | 58% | 1014.2 hPa | 0 mm | - | 0 W/m² | - |
| 1778026461 | 18.89° C | 58% | 1014.2 hPa | 0 mm | - | 3 W/m² | - |
| 1778026158 | 19.44° C | 56% | 1014.2 hPa | 0 mm | - | 5 W/m² | - |
| 1778025855 | 18.89° C | 56% | 1014.2 hPa | 0 mm | - | 9 W/m² | - |
| 1778025552 | 19.44° C | 56% | 1014.2 hPa | 0 mm | - | 13 W/m² | - |
| 1778025250 | 19.44° C | 55% | 1013.8 hPa | 0 mm | - | 13 W/m² | - |
| 1778024947 | 20° C | 54% | 1013.8 hPa | 0 mm | - | 17 W/m² | - |
| 1778024644 | 20° C | 55% | 1013.8 hPa | 0 mm | - | 21 W/m² | - |
| 1778024341 | 20° C | 54% | 1013.8 hPa | 0 mm | - | 29 W/m² | - |
* Rain latest hour (hover to see other rain measurements)
** Current wind speed in m/s (hover to see current wind gust speed)